Location: Niverville
(49.6028°N, 97.0419°W)
Time: 18:16:46
(UTC-06:00)

ISS - All Passes

Search period start: 02 December 2016 00:00
Search period end: 12 December 2016 00:00
Orbit: 401 x 410 km, 51.6° (Epoch: 03 December)

Date Brightness Start Highest point End Pass type
(mag) Time Alt. Az. Time Alt. Az. Time Alt. Az.
02 Dec - 00:51:59 10° W 00:54:36 21° SW 00:57:12 10° SSE night (unlit)
02 Dec - 17:35:53 10° SSE 17:37:19 12° SE 17:38:45 10° ESE visible
02 Dec - 19:10:01 10° SW 19:13:15 56° SSE 19:16:31 10° ENE visible
02 Dec - 20:46:30 10° W 20:49:48 61° N 20:53:06 10° ENE night (unlit)
02 Dec - 22:23:10 10° WNW 22:26:30 75° NNE 22:29:50 10° E night (unlit)
02 Dec - 23:59:50 10° W 00:02:52 33° SSW 00:05:53 10° SSE night (unlit)
03 Dec - 18:18:23 10° SW 18:21:26 36° SSE 18:24:32 10° E visible
03 Dec - 19:54:32 10° W 19:57:50 71° NNW 20:01:09 10° ENE visible
03 Dec - 21:31:15 10° WNW 21:34:33 63° N 21:37:51 10° E night (unlit)
03 Dec - 23:07:50 10° WNW 23:11:04 51° SSW 23:14:17 10° SE night (unlit)
04 Dec - 00:45:57 10° WSW 00:46:57 11° SW 00:47:58 10° SSW night (unlit)
04 Dec - 17:26:59 10° SSW 17:29:41 23° SE 17:32:24 10° E visible
04 Dec - 19:02:35 10° WSW 19:05:54 90° WSW 19:09:14 10° ENE visible
04 Dec - 20:39:17 10° W 20:42:35 58° N 20:45:52 10° E visible
04 Dec - 22:15:52 10° WNW 22:19:12 75° SSW 22:22:30 10° ESE night (unlit)
04 Dec - 23:52:57 10° W 23:55:18 18° SW 23:57:38 10° S night (unlit)
05 Dec - 16:36:00 10° S 16:37:58 15° SE 16:39:56 10° ESE daylight
05 Dec - 18:10:43 10° WSW 18:13:59 65° SSE 18:17:17 10° ENE visible
05 Dec - 19:47:17 10° W 19:50:35 59° N 19:53:51 10° ENE visible
05 Dec - 21:23:56 10° WNW 21:27:15 82° NNE 21:30:35 10° ESE night (unlit)
05 Dec - 23:00:40 10° W 23:03:33 28° SW 23:06:26 10° SSE night (unlit)
06 Dec - 17:18:58 10° SW 17:22:07 43° SSE 17:25:17 10° ENE visible
06 Dec - 18:55:17 10° W 18:58:34 66° N 19:01:53 10° ENE visible
06 Dec - 20:31:58 10° WNW 20:35:17 66° N 20:38:35 10° E visible
06 Dec - 22:08:34 10° WNW 22:11:44 43° SSW 22:14:54 10° SE night (unlit)
07 Dec - 16:27:26 10° SSW 16:30:18 28° SE 16:33:11 10° E daylight
07 Dec - 18:03:16 10° WSW 18:06:35 82° NNW 18:09:54 10° ENE visible
07 Dec - 19:40:00 10° WNW 19:43:16 59° N 19:46:34 10° E visible
07 Dec - 21:16:33 10° WNW 21:19:51 65° SSW 21:23:08 10° ESE night (unlit)
07 Dec - 22:53:54 10° WSW 22:55:52 15° SW 22:57:51 10° S night (unlit)
08 Dec - 15:36:13 10° S 15:38:31 18° SE 15:40:51 10° E daylight
08 Dec - 17:11:20 10° WSW 17:14:37 75° SSE 17:17:56 10° ENE visible
08 Dec - 18:47:57 10° W 18:51:14 58° N 18:54:31 10° E visible
08 Dec - 20:24:35 10° WNW 20:27:54 90° ESE 20:31:13 10° ESE visible
08 Dec - 22:01:24 10° W 22:04:07 24° SW 22:06:50 10° SSE night (unlit)
09 Dec - 14:45:52 10° SSE 14:46:48 11° SE 14:47:45 10° ESE daylight
09 Dec - 16:19:29 10° SW 16:22:41 51° SSE 16:25:55 10° ENE daylight
09 Dec - 17:55:55 10° W 17:59:12 63° N 18:02:30 10° ENE visible
09 Dec - 19:32:35 10° WNW 19:35:53 71° N 19:39:12 10° E visible
09 Dec - 21:09:12 10° W 21:12:17 36° SSW 21:15:22 10° SE night (unlit)
10 Dec - 15:27:49 10° SSW 15:30:48 33° SSE 15:33:49 10° E daylight
10 Dec - 17:03:52 10° W 17:07:10 75° NNW 17:10:28 10° ENE visible
10 Dec - 18:40:34 10° WNW 18:43:51 61° N 18:47:09 10° E visible
10 Dec - 20:17:08 10° WNW 20:20:24 56° SSW 20:23:38 10° SE visible
10 Dec - 21:54:52 10° WSW 21:56:20 12° SW 21:57:47 10° SSW night (unlit)
11 Dec - 14:36:25 10° SSW 14:38:58 21° SE 14:41:33 10° E daylight
11 Dec - 16:11:50 10° WSW 16:15:09 85° SSE 16:18:28 10° ENE daylight
11 Dec - 17:48:31 10° W 17:51:47 58° N 17:55:04 10° E visible
11 Dec - 19:25:06 10° WNW 19:28:25 81° SSW 19:31:44 10° ESE visible
11 Dec - 21:02:04 10° W 21:04:34 20° SW 21:07:03 10° S night (unlit)
